星链-1020 (STARLINK-1020 )

导读

STARLINK-1020是美国太空探索技术公司(SpaceX)星链卫星互联网项目的卫星,于2019年11月11日发射,属于星链早期部署批次。星链计划旨在构建全球卫星互联网星座,该卫星入轨后,承担着星座技术验证与早期通信服务测试任务,推动了低轨巨型星座组网进程。

基本信息
目录编号:
44725
目录名称:
STARLINK-1020
国际标识:
2019-074N
轨道中心:
EARTH
卫星名称:
星链-1020
卫星全名:
星链-1020 (STARLINK-1020 )
卫星状态:
在轨 (已飞行2496 天)
发射日期:
2019-11-11 UTC
国别 :
美国 (US)
星等 :
--
轨道信息
数据来源 国际轨道数据
星历时间: 2026-09-10T21:41:33+0800
13小时前
查看轨道信息
半长轴: 6740.723km
偏心率: 0.0000773
轨道倾角: 53.152°
近地点辐角 356.979°
升交点赤经 36.360°
平近点角 3.122°
近地点: 362.064km
远地点: 363.108km
周期: 91.795分钟
每日圈数: 15.687114
详细信息
固有亮度:
5
最大亮度:
2.5
卫星平台:
Starlink V1.0
覆盖范围:
全球
运营商:
太空探索技术公司
运营商所在国:
美国
制造商(研发单位):
太空探索技术公司
制造商所在国:
美国
使用方式:
暂无
卫星简介
星链(Starlink)计划是由太空探索技术公司(SpaceX)提出的一个巨型低轨卫星互联网星座项目,计划在2019年至2024年间在太空搭建由约1.2万颗卫星组成的“星链”网络,其中1584颗将部署在地球上空550千米处的近地轨道,并从2020年开始工作。该卫星仍在工作。
2D轨道图
3D轨道图
轨道高度分析图
轨道倾角分析图
轨道综合分析图
查看轨道综合分析图
交会数据列表
事件ID 空间交会对象 最接近时刻(TCA) 交会距离 交会风险概率(CRP) 交会风险指数(CRI) 操作
CDM_260912-145504-472504-536721
2026-09-12T
14:55:14+0000
1.934 km
极远距离
1.776101E-6 低风险 0.4
CDM_260910-224704-472506-169221
2026-09-10T
22:47:32+0000
2.580 km
极远距离
1.476412E-6 低风险 0.38
CDM_260912-123704-472504-536721
2026-09-12T
12:37:37+0000
2.433 km
极远距离
1.087772E-6 低风险 0.36
与全量物体交会距离演化趋势
与全量物体交会风险概率演化趋势